Dades meteomassalio
Diari Summary for Juliol 7, 2017 Units:  Metric    English   Both
« Previous Day
Next Day »
Diari Semanal Mensual Anual Personalitzat
  Maxima: Minima: Mijana:
Temperatura: -17.8 °C -6.1 °C -2.9 °C
Rosada: -17.8 °C -13.7 °C -10.3 °C
Humitat: Humidity % 21 % 47 %
Velocitat del vent: 0 km/h 0 km/h 12.7 km/h
Racha vent: 0 km/h - -
Vent:- - SE
Pressio: 0 hPa 34313.7 hPa -
Pluja: 0 mm    
Historical Graphs
 
 
Tabular Data for Juliol 7, 2017
Time Temperature Dew Point Pressure Wind Wind Speed Wind Gust Humidity Rainfall Rate (Hourly) solar Conditions
-17.8 °C -17.8 °C 0 hPa Calm     Humidity % 0 mm SolarRadiationWatts/m^2 W/m2 Conditions
00:01 -4.7 °C -8.8 °C 34418.7 hPa Calm     63 % 0 mm 0.0 W/m2 CLR
00:06 -4.7 °C -8.8 °C 34418.7 hPa Calm     63 % 0 mm 0.0 W/m2 CLR
00:11 -4.8 °C -8.8 °C 34418.7 hPa Calm     64 % 0 mm 0.0 W/m2 CLR
00:16 -4.8 °C -8.8 °C 34418.7 hPa Calm     64 % 0 mm 0.0 W/m2 CLR
00:21 -4.8 °C -8.8 °C 34418.7 hPa Calm     64 % 0 mm 0.0 W/m2 CLR
00:26 -4.8 °C -8.8 °C 34418.7 hPa Calm     64 % 0 mm 0.0 W/m2 CLR
00:31 -4.9 °C -8.8 °C 34418.7 hPa Calm     64 % 0 mm 0.0 W/m2 CLR
00:36 -4.9 °C -8.8 °C 34418.7 hPa Calm     65 % 0 mm 0.0 W/m2 CLR
00:41 -4.9 °C -8.8 °C 34418.7 hPa Calm     65 % 0 mm 0.0 W/m2 CLR
00:46 -4.9 °C -8.8 °C 34428.8 hPa Calm     65 % 0 mm 0.0 W/m2 CLR
00:51 -4.9 °C -8.8 °C 34428.8 hPa Calm     65 % 0 mm 0.0 W/m2 CLR
00:56 -5 °C -8.8 °C 34428.8 hPa Calm     65 % 0 mm 0.0 W/m2 CLR
01:01 -5.1 °C -8.8 °C 34442.4 hPa Calm     66 % 0 mm 0.0 W/m2 CLR
01:06 -5.1 °C -8.9 °C 34442.4 hPa Calm     65 % 0 mm 0.0 W/m2 CLR
01:11 -5.2 °C -8.9 °C 34442.4 hPa Calm     66 % 0 mm 0.0 W/m2 CLR
01:16 -5.3 °C -9 °C 34442.4 hPa Calm     66 % 0 mm 0.0 W/m2 CLR
01:21 -5.4 °C -9 °C 34452.6 hPa Calm     67 % 0 mm 0.0 W/m2 CLR
01:26 -5.4 °C -9 °C 34442.4 hPa Calm     67 % 0 mm 0.0 W/m2 CLR
01:31 -5.5 °C -9.1 °C 34442.4 hPa Calm     67 % 0 mm 0.0 W/m2 CLR
01:37 -5.5 °C -8.9 °C 34452.6 hPa Calm     68 % 0 mm 0.0 W/m2 CLR
01:42 -5.6 °C -9 °C 34452.6 hPa Calm     68 % 0 mm 0.0 W/m2 CLR
01:47 -5.6 °C -8.9 °C 34452.6 hPa Calm     69 % 0 mm 0.0 W/m2 CLR
01:52 -5.6 °C -8.9 °C 34452.6 hPa Calm     69 % 0 mm 0.0 W/m2 CLR
01:56 -5.6 °C -8.9 °C 34452.6 hPa Calm     69 % 0 mm 0.0 W/m2 CLR
02:02 -5.6 °C -8.9 °C 34452.6 hPa Calm     69 % 0 mm 0.0 W/m2 CLR
02:07 -5.6 °C -8.9 °C 34452.6 hPa Calm     69 % 0 mm 0.0 W/m2 CLR
02:12 -5.7 °C -8.9 °C 34442.4 hPa Calm     69 % 0 mm 0.0 W/m2 CLR
02:17 -5.7 °C -9 °C 34442.4 hPa Calm     69 % 0 mm 0.0 W/m2 CLR
02:22 -5.8 °C -9.1 °C 34452.6 hPa Calm     69 % 0 mm 0.0 W/m2 CLR
02:27 -5.8 °C -9 °C 34452.6 hPa Calm     70 % 0 mm 0.0 W/m2 CLR
02:32 -5.9 °C -9.1 °C 34452.6 hPa Calm     70 % 0 mm 0.0 W/m2 CLR
02:37 -5.9 °C -9.1 °C 34452.6 hPa Calm     70 % 0 mm 0.0 W/m2 CLR
02:42 -6 °C -9 °C 34442.4 hPa Calm     71 % 0 mm 0.0 W/m2 CLR
02:47 -6 °C -9 °C 34452.6 hPa Calm     71 % 0 mm 0.0 W/m2 CLR
02:52 -6 °C -9.1 °C 34452.6 hPa Calm     71 % 0 mm 0.0 W/m2 CLR
02:57 -6.1 °C -9.1 °C 34452.6 hPa Calm     71 % 0 mm 0.0 W/m2 CLR
03:02 -6.1 °C -9 °C 34452.6 hPa Calm     72 % 0 mm 0.0 W/m2 CLR
03:07 -6.1 °C -9 °C 34452.6 hPa Calm     72 % 0 mm 0.0 W/m2 CLR
03:12 -6.1 °C -9 °C 34462.7 hPa WSW 11.9 km/h 11.9 km/h 72 % 0 mm 0.0 W/m2 CLR
03:17 -6.1 °C -8.8 °C 34462.7 hPa SW 9 km/h 9 km/h 73 % 0 mm 0.0 W/m2 CLR
03:27 -5.9 °C -9 °C 34462.7 hPa SSW 9 km/h 9 km/h 71 % 0 mm 0.0 W/m2 CLR
03:32 -5.9 °C -9 °C 34452.6 hPa Calm     71 % 0 mm 0.0 W/m2 CLR
03:37 -5.9 °C -9 °C 34452.6 hPa Calm     71 % 0 mm 0.0 W/m2 CLR
03:42 -5.9 °C -8.8 °C 34452.6 hPa SW 9 km/h 9 km/h 72 % 0 mm 0.0 W/m2 CLR
03:47 -5.7 °C -8.8 °C 34452.6 hPa Calm     71 % 0 mm 0.0 W/m2 CLR
03:53 -5.7 °C -8.8 °C 34452.6 hPa Calm     71 % 0 mm 0.0 W/m2 CLR
03:58 -5.7 °C -8.9 °C 34452.6 hPa Calm     70 % 0 mm 0.0 W/m2 CLR
04:03 -5.8 °C -8.8 °C 34462.7 hPa SW 12.9 km/h 12.9 km/h 71 % 0 mm 0.0 W/m2 CLR
04:08 -5.7 °C -8.8 °C 34452.6 hPa Calm     71 % 0 mm 0.0 W/m2 CLR
04:13 -5.7 °C -8.7 °C 34452.6 hPa Calm     71 % 0 mm 0.0 W/m2 CLR
04:18 -5.7 °C -8.8 °C 34452.6 hPa Calm     70 % 0 mm 0.0 W/m2 CLR
04:23 -5.7 °C -8.9 °C 34452.6 hPa Calm     70 % 0 mm 0.0 W/m2 CLR
04:28 -5.8 °C -8.8 °C 34452.6 hPa Calm     71 % 0 mm 0.0 W/m2 CLR
04:33 -5.7 °C -8.9 °C 34452.6 hPa Calm     70 % 0 mm 0.0 W/m2 CLR
04:38 -5.8 °C -8.9 °C 34452.6 hPa Calm     70 % 0 mm 0.0 W/m2 CLR
04:43 -5.7 °C -8.9 °C 34452.6 hPa Calm     70 % 0 mm 0.0 W/m2 CLR
04:48 -5.7 °C -8.9 °C 34442.4 hPa Calm     70 % 0 mm 0.0 W/m2 CLR
04:53 -5.7 °C -8.8 °C 34442.4 hPa Calm     71 % 0 mm 0.0 W/m2 CLR
04:58 -5.7 °C -8.8 °C 34442.4 hPa NNE 5.1 km/h 5.1 km/h 70 % 0 mm 0.0 W/m2 CLR
05:03 -5.7 °C -8.9 °C 34442.4 hPa NW 17.9 km/h 17.9 km/h 70 % 0 mm 0.0 W/m2 CLR
05:08 -5.7 °C -8.8 °C 34442.4 hPa NW 9 km/h   71 % 0 mm 0.0 W/m2 CLR
05:13 -5.7 °C -8.7 °C 34442.4 hPa WSW 6 km/h   71 % 0 mm 0.0 W/m2 CLR
05:18 -5.6 °C -8.7 °C 34452.6 hPa SSW 12.9 km/h 12.9 km/h 71 % 0 mm 0.0 W/m2 CLR
05:23 -5.6 °C -8.7 °C 34442.4 hPa Calm     70 % 0 mm 0.0 W/m2 CLR
05:28 -5.5 °C -8.7 °C 34428.8 hPa ENE 6 km/h 6 km/h 70 % 0 mm 0.0 W/m2 CLR
05:33 -5.5 °C -8.8 °C 34428.8 hPa Calm     69 % 0 mm 0.0 W/m2 CLR
05:38 -5.6 °C -8.8 °C 34442.4 hPa Calm     70 % 0 mm 0.0 W/m2 CLR
05:43 -5.7 °C -8.9 °C 34428.8 hPa Calm     70 % 0 mm 0.0 W/m2 CLR
05:48 -5.8 °C -8.8 °C 34418.7 hPa Calm     71 % 0 mm 0.0 W/m2 CLR
05:53 -5.8 °C -8.8 °C 34418.7 hPa Calm     71 % 0 mm 0.0 W/m2 CLR
05:55 -5.8 °C -8.8 °C 34428.8 hPa Calm     71 % 0 mm 0.0 W/m2 CLR
06:00 -5.7 °C -8.8 °C 34418.7 hPa Calm     71 % 0 mm 0.0 W/m2 CLR
06:05 -5.7 °C -8.8 °C 34418.7 hPa SSE 9 km/h   71 % 0 mm 0.0 W/m2 CLR
06:10 -5.7 °C -8.9 °C 34405.1 hPa Calm     70 % 0 mm 0.0 W/m2 CLR
06:15 -5.7 °C -8.9 °C 34405.1 hPa Calm     70 % 0 mm 0.0 W/m2 CLR
06:20 -5.7 °C -8.9 °C 34405.1 hPa Calm     70 % 0 mm 0.0 W/m2 CLR
06:25 -5.7 °C -8.9 °C 34405.1 hPa Calm   0.8 km/h 70 % 0 mm 0.0 W/m2 OVC
06:30 -5.7 °C -8.9 °C 34405.1 hPa Calm     70 % 0 mm 0.0 W/m2 OVC
06:35 -5.8 °C -8.9 °C 34405.1 hPa Calm     70 % 0 mm 0.0 W/m2 OVC
06:40 -5.8 °C -8.9 °C 34405.1 hPa Calm     70 % 0 mm 0.0 W/m2 OVC
06:45 -5.8 °C -9 °C 34405.1 hPa Calm     70 % 0 mm 7.0 W/m2 OVC
06:50 -5.9 °C -8.9 °C 34405.1 hPa Calm     71 % 0 mm 11.0 W/m2 BKN
06:55 -5.9 °C -8.9 °C 34405.1 hPa Calm     71 % 0 mm 11.0 W/m2 BKN
07:00 -5.9 °C -8.9 °C 34405.1 hPa Calm     71 % 0 mm 11.0 W/m2 BKN
07:05 -5.8 °C -8.9 °C 34395 hPa Calm     71 % 0 mm 12.0 W/m2 BKN
07:10 -5.8 °C -8.8 °C 34395 hPa Calm     71 % 0 mm 21.0 W/m2 BKN
07:15 -5.8 °C -8.9 °C 34395 hPa Calm     70 % 0 mm 37.0 W/m2 BKN
07:20 -5.7 °C -8.9 °C 34395 hPa Calm     70 % 0 mm 47.0 W/m2 SCT
07:25 -5.8 °C -8.9 °C 34405.1 hPa WNW 9 km/h 9 km/h 70 % 0 mm 49.0 W/m2 SCT
07:30 -5.6 °C -8.9 °C 34405.1 hPa WNW 9 km/h 9 km/h 69 % 0 mm 53.0 W/m2 SCT
07:35 -5.4 °C -8.8 °C 34405.1 hPa NW 15.6 km/h 15.6 km/h 68 % 0 mm 56.0 W/m2 SCT
07:40 -5.3 °C -9 °C 34418.7 hPa NW 11.9 km/h 11.9 km/h 66 % 0 mm 56.0 W/m2 SCT
07:45 -5.1 °C -9 °C 34418.7 hPa NW 6 km/h 6 km/h 65 % 0 mm 56.0 W/m2 SCT
07:50 -5.1 °C -8.9 °C 34418.7 hPa Calm     65 % 0 mm 62.0 W/m2 SCT
07:55 -5 °C -8.7 °C 34418.7 hPa Calm     66 % 0 mm 60.0 W/m2 SCT
08:00 -5.1 °C -8.7 °C 34418.7 hPa Calm     66 % 0 mm 56.0 W/m2 SCT
08:05 -5.1 °C -8.9 °C 34418.7 hPa Calm     65 % 0 mm 65.0 W/m2 SCT
08:10 -5.1 °C -8.9 °C 34418.7 hPa Calm     65 % 0 mm 83.0 W/m2 SCT
08:16 -5.1 °C -8.7 °C 34418.7 hPa Calm     66 % 0 mm 116.0 W/m2 FEW
08:21 -5 °C -8.7 °C 34428.8 hPa Calm     66 % 0 mm 141.0 W/m2 CLR
08:26 -4.9 °C -8.8 °C 34428.8 hPa Calm     65 % 0 mm 91.0 W/m2 CLR
08:31 -4.9 °C -8.8 °C 34428.8 hPa Calm     64 % 0 mm 83.0 W/m2 CLR
08:36 -4.8 °C -8.8 °C 34428.8 hPa Calm     64 % 0 mm 93.0 W/m2 CLR
08:41 -4.8 °C -8.7 °C 34428.8 hPa Calm     65 % 0 mm 111.0 W/m2 CLR
08:46 -4.8 °C -8.7 °C 34442.4 hPa Calm     65 % 0 mm 281.0 W/m2 CLR
08:51 -4.7 °C -8.7 °C 34442.4 hPa WSW 12.9 km/h 12.9 km/h 64 % 0 mm 225.0 W/m2 CLR
08:56 -4.4 °C -8.7 °C 34428.8 hPa WSW 11.9 km/h 11.9 km/h 62 % 0 mm 260.0 W/m2 CLR
09:01 -4.3 °C -8.7 °C 34428.8 hPa Calm     61 % 0 mm 323.0 W/m2 CLR
09:06 -4.1 °C -8.7 °C 34428.8 hPa Calm     60 % 0 mm 315.0 W/m2 CLR
09:11 -3.9 °C -8.8 °C 34418.7 hPa Calm     58 % 0 mm 276.0 W/m2 CLR
09:16 -3.6 °C -8.4 °C 34418.7 hPa NE 9 km/h 9 km/h 59 % 0 mm 279.0 W/m2 CLR
09:21 -3.5 °C -8.6 °C 34418.7 hPa Calm     57 % 0 mm 294.0 W/m2 CLR
09:26 -3.4 °C -8.7 °C 34418.7 hPa Calm     56 % 0 mm 271.0 W/m2 CLR
09:31 -3.4 °C -8.8 °C 34428.8 hPa Calm     55 % 0 mm 250.0 W/m2 CLR
09:36 -3.5 °C -8.9 °C 34418.7 hPa Calm     55 % 0 mm 297.0 W/m2 CLR
09:41 -3.4 °C -8.8 °C 34428.8 hPa Calm     55 % 0 mm 250.0 W/m2 CLR
09:46 -3.3 °C -8.9 °C 34428.8 hPa Calm     54 % 0 mm 236.0 W/m2 CLR
09:51 -3.2 °C -8.8 °C 34418.7 hPa Calm     54 % 0 mm 285.0 W/m2 CLR
09:56 -3.2 °C -8.7 °C 34418.7 hPa Calm     54 % 0 mm 371.0 W/m2 CLR
10:01 -3 °C -8.8 °C 34418.7 hPa Calm     53 % 0 mm 352.0 W/m2 CLR
10:06 -2.8 °C -8.8 °C 34418.7 hPa Calm     52 % 0 mm 383.0 W/m2 CLR
10:11 -2.6 °C -8.7 °C 34418.7 hPa Calm     51 % 0 mm 308.0 W/m2 CLR
10:16 -2.4 °C -8.9 °C 34418.7 hPa Calm     49 % 0 mm 343.0 W/m2 CLR
10:21 -2.4 °C -9.1 °C 34418.7 hPa Calm     48 % 0 mm 450.0 W/m2 CLR
10:26 -2.2 °C -8.9 °C 34418.7 hPa Calm     48 % 0 mm 534.0 W/m2 CLR
10:31 -1.9 °C -9 °C 34418.7 hPa Calm     46 % 0 mm 652.0 W/m2 CLR
10:36 -1.6 °C -9.1 °C 34418.7 hPa Calm     44 % 0 mm 584.0 W/m2 CLR
10:41 -1.4 °C -9.3 °C 34405.1 hPa Calm   2.3 km/h 42 % 0 mm 652.0 W/m2 CLR
10:46 -1.3 °C -9.5 °C 34405.1 hPa NE 9 km/h 9 km/h 41 % 0 mm 522.0 W/m2 CLR
10:51 -1.2 °C -9.4 °C 34405.1 hPa NE 5.1 km/h 5.1 km/h 41 % 0 mm 686.0 W/m2 CLR
10:56 -1.1 °C -9.4 °C 34405.1 hPa NE 15 km/h 15 km/h 40 % 0 mm 689.0 W/m2 CLR
11:01 -1 °C -9.6 °C 34405.1 hPa NE 9 km/h 9 km/h 39 % 0 mm 624.0 W/m2 CLR
11:06 -0.9 °C -10 °C 34405.1 hPa Calm     37 % 0 mm 631.0 W/m2 CLR
11:11 -0.8 °C -9.8 °C 34405.1 hPa NE 11.9 km/h 11.9 km/h 37 % 0 mm 652.0 W/m2 CLR
11:16 -0.7 °C -10.1 °C 34405.1 hPa NNE 9 km/h 9 km/h 36 % 0 mm 624.0 W/m2 CLR
11:21 -0.6 °C -10.2 °C 34405.1 hPa NE 3.1 km/h 3.1 km/h 35 % 0 mm 584.0 W/m2 CLR
11:27 -0.4 °C -10.2 °C 34405.1 hPa ENE 17.9 km/h 17.9 km/h 34 % 0 mm 547.0 W/m2 CLR
11:32 -0.4 °C -10.7 °C 34405.1 hPa East 17.9 km/h 17.9 km/h 32 % 0 mm 577.0 W/m2 CLR
11:37 -0.4 °C -11 °C 34395 hPa ESE 25.9 km/h 25.9 km/h 31 % 0 mm 636.0 W/m2 CLR
11:42 -0.2 °C -11.5 °C 34395 hPa SE 38.8 km/h 38.8 km/h 29 % 0 mm 603.0 W/m2 CLR
11:47 -0.2 °C -11.7 °C 34405.1 hPa ESE 38.8 km/h 38.8 km/h 28 % 0 mm 531.0 W/m2 CLR
11:52 -0.2 °C -11.7 °C 34395 hPa SE 41.7 km/h 41.7 km/h 28 % 0 mm 497.0 W/m2 CLR
11:57 -0.2 °C -11.4 °C 34395 hPa ESE 36.2 km/h 36.2 km/h 29 % 0 mm 496.0 W/m2 CLR
12:02 -0.2 °C -11.4 °C 34395 hPa East 36.2 km/h 36.2 km/h 29 % 0 mm 619.0 W/m2 CLR
12:07 -0.1 °C -11.7 °C 34395 hPa East 35.7 km/h 35.7 km/h 28 % 0 mm 698.0 W/m2 CLR
12:12 -0.1 °C -12 °C 34395 hPa East 38.8 km/h 38.8 km/h 27 % 0 mm 494.0 W/m2 CLR
12:17 -0.1 °C -11.6 °C 34395 hPa ESE 29.8 km/h 29.8 km/h 28 % 0 mm 563.0 W/m2 CLR
12:22 0.1 °C -11.8 °C 34395 hPa ESE 32.8 km/h 35.2 km/h 27 % 0 mm 724.0 W/m2 CLR
12:27 0.1 °C -11.4 °C 34395 hPa East 31.1 km/h 31.1 km/h 28 % 0 mm 682.0 W/m2 CLR
12:32 0.2 °C -11.7 °C 34384.8 hPa East 29.8 km/h 29.8 km/h 27 % 0 mm 568.0 W/m2 CLR
12:37 -0.1 °C -11.9 °C 34384.8 hPa ESE 47.6 km/h 47.6 km/h 27 % 0 mm 526.0 W/m2 CLR
12:42 -0.2 °C -12 °C 34395 hPa SE 47.6 km/h 47.6 km/h 27 % 0 mm 522.0 W/m2 CLR
12:47 -0.2 °C -11.4 °C 34384.8 hPa ESE 38.8 km/h 38.8 km/h 29 % 0 mm 564.0 W/m2 CLR
12:52 0.1 °C -11.5 °C 34384.8 hPa ESE 41.7 km/h 41.7 km/h 28 % 0 mm 584.0 W/m2 CLR
12:57 0 °C -11.6 °C 34384.8 hPa East 50.7 km/h 50.7 km/h 28 % 0 mm 585.0 W/m2 CLR
13:02 -0.1 °C -11.6 °C 34384.8 hPa East 50.7 km/h 50.7 km/h 28 % 0 mm 613.0 W/m2 CLR
13:07 -0.3 °C -11.5 °C 34384.8 hPa ESE 44.7 km/h 44.7 km/h 29 % 0 mm 522.0 W/m2 CLR
13:12 -0.3 °C -11.2 °C 34395 hPa ESE 47.6 km/h 47.6 km/h 30 % 0 mm 515.0 W/m2 CLR
13:17 -0.2 °C -11.4 °C 34395 hPa ESE 44.7 km/h 44.7 km/h 29 % 0 mm 531.0 W/m2 CLR
13:22 -0.2 °C -11.2 °C 34395 hPa SE 44.1 km/h 44.1 km/h 30 % 0 mm 501.0 W/m2 CLR
13:27 -0.2 °C -11.4 °C 34395 hPa SE 32.8 km/h 32.8 km/h 29 % 0 mm 464.0 W/m2 CLR
13:32 -0.2 °C -11.4 °C 34384.8 hPa SSE 47.6 km/h 47.6 km/h 29 % 0 mm 494.0 W/m2 CLR
13:37 -0.2 °C -11.5 °C 34384.8 hPa ESE 41.7 km/h 41.7 km/h 29 % 0 mm 476.0 W/m2 CLR
13:42 -0.2 °C -11.4 °C 34384.8 hPa ESE 44.7 km/h 44.7 km/h 29 % 0 mm 452.0 W/m2 CLR
13:48 -0.1 °C -11.9 °C 34384.8 hPa SE 53.6 km/h 53.6 km/h 27 % 0 mm 457.0 W/m2 CLR
13:53 0.2 °C -12.1 °C 34384.8 hPa SSE 46.7 km/h 46.7 km/h 26 % 0 mm 512.0 W/m2 CLR
13:58 0.3 °C -12.6 °C 34384.8 hPa SE 50.7 km/h 50.7 km/h 24 % 0 mm 517.0 W/m2 CLR
14:03 0.3 °C -12.9 °C 34384.8 hPa SE 53.6 km/h 53.6 km/h 23 % 0 mm 584.0 W/m2 CLR
14:08 0.4 °C -12.5 °C 34384.8 hPa ESE 50.7 km/h 50.7 km/h 24 % 0 mm 483.0 W/m2 CLR
14:13 0.2 °C -12.7 °C 34384.8 hPa SE 62.6 km/h 62.6 km/h 24 % 0 mm 448.0 W/m2 CLR
14:18 0 °C -12.8 °C 34371.3 hPa SE 50.7 km/h 50.7 km/h 24 % 0 mm 397.0 W/m2 CLR
14:23 -0.1 °C -12.9 °C 34371.3 hPa SE 53.6 km/h 53.6 km/h 24 % 0 mm 415.0 W/m2 CLR
14:28 -0.2 °C -12.6 °C 34384.8 hPa SSE 47.6 km/h 47.6 km/h 25 % 0 mm 517.0 W/m2 CLR
14:33 -0.2 °C -12.9 °C 34395 hPa SE 50.7 km/h 50.7 km/h 24 % 0 mm 536.0 W/m2 CLR
14:38 -0.1 °C -13.3 °C 34395 hPa ESE 47.6 km/h 47.6 km/h 23 % 0 mm 543.0 W/m2 CLR
14:43 -0.1 °C -12.9 °C 34395 hPa SSE 41.7 km/h 41.7 km/h 24 % 0 mm 547.0 W/m2 CLR
14:48 0.1 °C -13.1 °C 34395 hPa SSE 38.8 km/h 38.8 km/h 23 % 0 mm 563.0 W/m2 CLR
14:53 0.1 °C -13.4 °C 34395 hPa SSE 41.7 km/h 41.7 km/h 22 % 0 mm 548.0 W/m2 CLR
14:58 0 °C -13.2 °C 34395 hPa SE 44.7 km/h 44.7 km/h 23 % 0 mm 664.0 W/m2 CLR
15:03 0.2 °C -13.1 °C 34395 hPa SE 38.8 km/h 38.8 km/h 23 % 0 mm 540.0 W/m2 CLR
15:08 0.2 °C -13.3 °C 34395 hPa SSE 50.7 km/h 50.7 km/h 22 % 0 mm 434.0 W/m2 CLR
15:13 0.3 °C -13.3 °C 34405.1 hPa SE 31.1 km/h 31.1 km/h 22 % 0 mm 529.0 W/m2 CLR
15:18 0.3 °C -13.7 °C 34405.1 hPa ESE 56.6 km/h 56.6 km/h 21 % 0 mm 367.0 W/m2 CLR
15:23 0.2 °C -13.4 °C 34405.1 hPa SE 50.7 km/h 50.7 km/h 22 % 0 mm 287.0 W/m2 CLR
15:28 0.1 °C -13.5 °C 34418.7 hPa SE 53.6 km/h 53.6 km/h 22 % 0 mm 227.0 W/m2 CLR
15:33 -0.1 °C -13.2 °C 34418.7 hPa SE 41.7 km/h 41.7 km/h 23 % 0 mm 174.0 W/m2 CLR
15:38 -0.2 °C -13.3 °C 34418.7 hPa South 32.8 km/h 32.8 km/h 23 % 0 mm 139.0 W/m2 CLR
15:43 -0.2 °C -13.3 °C 34418.7 hPa SE 26.9 km/h 26.9 km/h 23 % 0 mm 118.0 W/m2 CLR
15:48 -0.2 °C -13 °C 34418.7 hPa SSE 23.8 km/h 23.8 km/h 24 % 0 mm 100.0 W/m2 CLR
15:53 -0.3 °C -13.1 °C 34418.7 hPa SSE 20.9 km/h 20.9 km/h 24 % 0 mm 98.0 W/m2 CLR
15:58 -0.3 °C -13.1 °C 34418.7 hPa ESE 17.9 km/h 17.9 km/h 24 % 0 mm 116.0 W/m2 CLR
16:03 -0.4 °C -13.2 °C 34418.7 hPa SE 15 km/h 15 km/h 24 % 0 mm 148.0 W/m2 CLR
16:08 -0.4 °C -13.2 °C 34418.7 hPa SE 23.8 km/h 23.8 km/h 24 % 0 mm 171.0 W/m2 CLR
16:13 -0.4 °C -12.8 °C 34418.7 hPa SE 6 km/h 6 km/h 25 % 0 mm 176.0 W/m2 CLR
16:18 -0.4 °C -12.9 °C 34428.8 hPa SE 23.8 km/h 23.8 km/h 25 % 0 mm 167.0 W/m2 CLR
16:23 -0.6 °C -12.7 °C 34428.8 hPa SE 15 km/h 15 km/h 26 % 0 mm 155.0 W/m2 CLR
16:28 -0.6 °C -12.7 °C 34428.8 hPa SSE 20.9 km/h 20.9 km/h 26 % 0 mm 149.0 W/m2 CLR
16:33 -0.7 °C -12.4 °C 34418.7 hPa ESE 17.9 km/h 17.9 km/h 27 % 0 mm 141.0 W/m2 CLR
16:38 -0.7 °C -12.5 °C 34428.8 hPa SSE 17.9 km/h 17.9 km/h 27 % 0 mm 132.0 W/m2 CLR
16:43 -0.8 °C -12.2 °C 34418.7 hPa SE 15 km/h 15 km/h 28 % 0 mm 121.0 W/m2 CLR
16:48 -0.8 °C -12.2 °C 34418.7 hPa SSE 12.9 km/h 12.9 km/h 28 % 0 mm 111.0 W/m2 CLR
16:53 -0.8 °C -11.9 °C 34418.7 hPa SSE 20.9 km/h 20.9 km/h 29 % 0 mm 100.0 W/m2 CLR
16:58 -0.7 °C -11.9 °C 34405.1 hPa South 20.9 km/h 20.9 km/h 29 % 0 mm 91.0 W/m2 CLR
17:03 -0.7 °C -11.9 °C 34405.1 hPa SE 9 km/h 9 km/h 29 % 0 mm 88.0 W/m2 CLR
17:08 -0.7 °C -11.9 °C 34405.1 hPa SSE 6 km/h 6 km/h 29 % 0 mm 86.0 W/m2 CLR
17:13 -0.8 °C -11.7 °C 34418.7 hPa SE 15 km/h 15 km/h 30 % 0 mm 67.0 W/m2 FEW
17:18 -0.9 °C -11.8 °C 34395 hPa ESE 12.9 km/h 12.9 km/h 30 % 0 mm 51.0 W/m2 FEW
17:23 -0.9 °C -11.8 °C 34405.1 hPa SE 17.9 km/h 17.9 km/h 30 % 0 mm 39.0 W/m2 SCT
17:28 -0.9 °C -11.5 °C 34405.1 hPa South 11.9 km/h 11.9 km/h 31 % 0 mm 30.0 W/m2 BKN
17:33 -1 °C -11.6 °C 34405.1 hPa ESE 7.7 km/h 7.7 km/h 31 % 0 mm 28.0 W/m2 BKN
17:38 -1.1 °C -11.6 °C 34395 hPa ESE 26.9 km/h 26.9 km/h 31 % 0 mm 28.0 W/m2 BKN
17:43 -1.1 °C -11.7 °C 34371.3 hPa ESE 23.8 km/h 23.8 km/h 31 % 0 mm 28.0 W/m2 BKN
17:48 -1.2 °C -11.7 °C 34361.1 hPa East 50.7 km/h 50.7 km/h 31 % 0 mm 39.0 W/m2 BKN
17:53 -1.3 °C -11.5 °C 34361.1 hPa East 68.6 km/h 68.6 km/h 32 % 0 mm 49.0 W/m2 BKN
17:58 -1.2 °C -11.7 °C 34337.4 hPa SE 33.6 km/h 33.6 km/h 31 % 0 mm 42.0 W/m2 BKN
18:03 -1.1 °C -11.7 °C 34337.4 hPa ENE 17.9 km/h 17.9 km/h 31 % 0 mm 40.0 W/m2 BKN
18:08 -1.2 °C -11.5 °C 34361.1 hPa SE 35.7 km/h 35.7 km/h 32 % 0 mm 53.0 W/m2 BKN
18:13 -1.3 °C -11.1 °C 34361.1 hPa South 35.7 km/h 35.7 km/h 34 % 0 mm 93.0 W/m2 SCT
18:18 -1.5 °C -10.7 °C 34384.8 hPa South 38.8 km/h 38.8 km/h 36 % 0 mm 105.0 W/m2 FEW
18:23 -1.6 °C -10.4 °C 34384.8 hPa SSE 35.7 km/h 35.7 km/h 38 % 0 mm 72.0 W/m2 CLR
18:28 -1.8 °C -10.3 °C 34384.8 hPa SSE 29.8 km/h 29.8 km/h 39 % 0 mm 40.0 W/m2 FEW
18:33 -1.8 °C -10.3 °C 34371.3 hPa SE 9 km/h   39 % 0 mm 32.0 W/m2 SCT
18:38 -1.8 °C -10.6 °C 34361.1 hPa Calm     38 % 0 mm 32.0 W/m2 BKN
18:43 -1.8 °C -10.6 °C 34347.6 hPa Calm     38 % 0 mm 40.0 W/m2 BKN
18:48 -1.8 °C -10.4 °C 34347.6 hPa Calm     39 % 0 mm 47.0 W/m2 BKN
18:53 -1.9 °C -10 °C 34327.3 hPa NNE 15 km/h 15 km/h 41 % 0 mm 51.0 W/m2 SCT
18:58 -2.1 °C -10.1 °C 34327.3 hPa NNW 11.9 km/h 11.9 km/h 41 % 0 mm 84.0 W/m2 SCT
19:03 -2.1 °C -11 °C 34327.3 hPa NE 17.9 km/h 17.9 km/h 37 % 0 mm 120.0 W/m2 FEW
19:08 -1.9 °C -10.9 °C 34337.4 hPa Calm     37 % 0 mm 128.0 W/m2 CLR
19:13 -1.8 °C -10.8 °C 34337.4 hPa SE 11.9 km/h 11.9 km/h 37 % 0 mm 120.0 W/m2 CLR
19:18 -1.8 °C -10.8 °C 34327.3 hPa Calm     37 % 0 mm 95.0 W/m2 CLR
19:23 -1.8 °C -11 °C 34347.6 hPa SSE 28.5 km/h 28.5 km/h 36 % 0 mm 70.0 W/m2 CLR
19:28 -1.7 °C -11.2 °C 34337.4 hPa SSE 6 km/h   35 % 0 mm 46.0 W/m2 FEW
19:33 -1.7 °C -11.4 °C 34347.6 hPa East 26.9 km/h 26.9 km/h 34 % 0 mm 46.0 W/m2 SCT
19:38 -1.8 °C -11.2 °C 34337.4 hPa ESE 23.8 km/h 23.8 km/h 35 % 0 mm 63.0 W/m2 SCT
19:43 -1.8 °C -11.2 °C 34337.4 hPa East 10.3 km/h 10.3 km/h 35 % 0 mm 116.0 W/m2 FEW
19:48 -1.8 °C -10.9 °C 34337.4 hPa East 9 km/h 9 km/h 36 % 0 mm 225.0 W/m2 CLR
19:53 -1.8 °C -10.9 °C 34327.3 hPa ESE 11.9 km/h   36 % 0 mm 149.0 W/m2 CLR
19:58 -1.7 °C -10.9 °C 34327.3 hPa Calm     36 % 0 mm 246.0 W/m2 CLR
20:03 -1.7 °C -10.9 °C 34327.3 hPa Calm     36 % 0 mm 153.0 W/m2 CLR
20:08 -1.6 °C -11.1 °C 34327.3 hPa Calm     35 % 0 mm 114.0 W/m2 CLR
20:13 -1.6 °C -11.1 °C 34313.7 hPa Calm     35 % 0 mm 118.0 W/m2 CLR
20:18 -1.6 °C -11.3 °C 34313.7 hPa ESE 9 km/h 9 km/h 34 % 0 mm 105.0 W/m2 CLR
20:23 -1.5 °C -11.2 °C 34327.3 hPa ESE 9 km/h 9 km/h 34 % 0 mm 79.0 W/m2 CLR
20:29 -1.5 °C -10.9 °C 34337.4 hPa SE 10.3 km/h 10.3 km/h 35 % 0 mm 46.0 W/m2 FEW
20:34 -1.6 °C -10.8 °C 34337.4 hPa ESE 17.9 km/h 17.9 km/h 36 % 0 mm 23.0 W/m2 SCT
20:39 -1.6 °C -10.6 °C 34337.4 hPa ESE 6 km/h   37 % 0 mm 14.0 W/m2 BKN
20:44 -1.7 °C -10.9 °C 34337.4 hPa SE 10.3 km/h 10.3 km/h 36 % 0 mm 14.0 W/m2 BKN
20:49 -1.7 °C -11.1 °C 34327.3 hPa ESE 9 km/h 9 km/h 35 % 0 mm 14.0 W/m2 BKN
20:54 -1.7 °C -11.1 °C 34327.3 hPa ESE 9 km/h   35 % 0 mm 12.0 W/m2 BKN
20:59 -1.7 °C -11.2 °C 34327.3 hPa Calm     35 % 0 mm 5.0 W/m2 OVC
21:04 -1.7 °C -10.9 °C 34337.4 hPa Calm     36 % 0 mm 0.0 W/m2 OVC
21:09 -1.8 °C -11.2 °C 34347.6 hPa Calm     35 % 0 mm 0.0 W/m2 OVC
21:14 -1.8 °C -11.2 °C 34347.6 hPa Calm     35 % 0 mm 0.0 W/m2 OVC
21:19 -1.8 °C -11.1 °C 34327.3 hPa Calm     36 % 0 mm 0.0 W/m2 OVC
21:24 -1.9 °C -11.1 °C 34337.4 hPa East 9 km/h 9 km/h 36 % 0 mm 0.0 W/m2 OVC
21:29 -1.9 °C -10.9 °C 34327.3 hPa NNE 9 km/h 9 km/h 37 % 0 mm 0.0 W/m2 OVC
21:34 -2.1 °C -11 °C 34337.4 hPa Calm     37 % 0 mm 0.0 W/m2 OVC
21:39 -2.2 °C -10.9 °C 34337.4 hPa Calm     38 % 0 mm 0.0 W/m2 OVC
21:44 -2.3 °C -10.7 °C 34337.4 hPa Calm     39 % 0 mm 0.0 W/m2 OVC
21:49 -2.4 °C -10.8 °C 34337.4 hPa Calm     39 % 0 mm 0.0 W/m2 CLR
21:54 -2.4 °C -10.8 °C 34337.4 hPa Calm     39 % 0 mm 0.0 W/m2 CLR
21:59 -2.4 °C -10.7 °C 34337.4 hPa Calm     40 % 0 mm 0.0 W/m2 CLR
22:09 -2.3 °C -11 °C 34327.3 hPa ENE 9 km/h 9 km/h 38 % 0 mm 0.0 W/m2 CLR
22:14 -2.3 °C -10.8 °C 34313.7 hPa Calm     39 % 0 mm 0.0 W/m2 CLR
22:19 -2.4 °C -10.4 °C 34313.7 hPa ENE 11.9 km/h 11.9 km/h 41 % 0 mm 0.0 W/m2 CLR
22:24 -2.4 °C -10.3 °C 34327.3 hPa ESE 15 km/h 15 km/h 42 % 0 mm 0.0 W/m2 CLR
22:29 -2.6 °C -10.2 °C 34337.4 hPa SE 17.9 km/h 17.9 km/h 43 % 0 mm 0.0 W/m2 CLR
22:34 -2.6 °C -10.2 °C 34337.4 hPa SE 9 km/h 9 km/h 43 % 0 mm 0.0 W/m2 CLR
22:39 -2.6 °C -10.1 °C 34337.4 hPa Calm     43 % 0 mm 0.0 W/m2 CLR
22:44 -2.5 °C -10.1 °C 34327.3 hPa Calm     43 % 0 mm 0.0 W/m2 CLR
22:49 -2.6 °C -10.1 °C 34327.3 hPa Calm     43 % 0 mm 0.0 W/m2 CLR
22:54 -2.6 °C -10 °C 34327.3 hPa Calm     44 % 0 mm 0.0 W/m2 CLR
22:59 -2.7 °C -9.9 °C 34327.3 hPa Calm     45 % 0 mm 0.0 W/m2 CLR
23:04 -2.8 °C -9.9 °C 34327.3 hPa Calm     45 % 0 mm 0.0 W/m2 CLR
23:09 -2.8 °C -10 °C 34337.4 hPa Calm     45 % 0 mm 0.0 W/m2 CLR
23:14 -2.8 °C -10 °C 34337.4 hPa Calm     45 % 0 mm 0.0 W/m2 CLR
23:19 -2.8 °C -10.1 °C 34337.4 hPa Calm     45 % 0 mm 0.0 W/m2 CLR
23:24 -2.8 °C -10.4 °C 34337.4 hPa Calm     43 % 0 mm 0.0 W/m2 CLR
23:29 -2.8 °C -10.8 °C 34337.4 hPa SSE 17.9 km/h 17.9 km/h 41 % 0 mm 0.0 W/m2 CLR
23:34 -2.7 °C -10.7 °C 34347.6 hPa SSE 9 km/h   41 % 0 mm 0.0 W/m2 CLR
23:39 -2.7 °C -10.9 °C 34361.1 hPa South 18.2 km/h 18.2 km/h 40 % 0 mm 0.0 W/m2 CLR
23:44 -2.6 °C -11.6 °C 34361.1 hPa SSE 20.9 km/h 20.9 km/h 36 % 0 mm 0.0 W/m2 CLR
23:49 -2.3 °C -11.7 °C 34361.1 hPa SE 15 km/h 15 km/h 35 % 0 mm 0.0 W/m2 CLR
23:54 -2.3 °C -11.7 °C 34371.3 hPa SE 11.9 km/h 11.9 km/h 35 % 0 mm 0.0 W/m2 CLR
23:59 -2.3 °C -11.7 °C 34371.3 hPa SE 15.6 km/h 15.6 km/h 35 % 0 mm 0.0 W/m2 CLR
Lo Temps de Massalio
Compliments of Weather Underground - 1.25 mb